Flag for Switzerland Weather past 2 weeks in Stans, Nidwalden, Switzerland

Now
74 °F

Mild.


Feels Like: 77 °F
Forecast: 49 / 71 °F
Wind: 3 mph from Northeast

Location: Giswil

Current Time: May 29, 2015 at 2:37:35 PM

Latest Report: May 29, 2015 at 2:00 PM


Visibility: N/A

Pressure: 29.82 "Hg

Humidity: 32%

Dew point: 42 °F

Location of StansLocation

Historic Weather in Stans — Graph

°F

Stans temperature yesterday

Maximum temperature yesterday: 71 °F (at 6:00 PM)
Minimum temperature yesterday: 38 °F (at 6:00 AM)
Average temperature yesterday: 55 °F

Past Weeks' High & Low Weather Summary

 TemperatureHumidityPressure
High74 °F (May 14, 4:00 PM)100% (May 22, 6:00 AM)30.35 "Hg (May 22, 6:00 AM)
Low38 °F (May 28, 6:00 AM)35% (May 29, 1:00 PM)29.73 "Hg (May 18, 7:00 PM)
Average54 °F80%30.08 "Hg
* Reported May 14 1:00 PM — May 29 1:00 PM, Stans, Weather by CustomWeather, © 2015

Note: Actual official high and low records may vary slightly from our data, if they occured in-between our weather recording intervals... More about our weather records

Advertising

Stans weather history for previous 24 hours

 ConditionsComfort  
Time TempWeatherWind HumidityBarometerVisibility
1:00 PM
Fri, May 29
72 °FMild.2 mph35%29.85 "HgN/A
12:00 PM69 °FMild.2 mph42%29.88 "HgN/A
11:00 AM64 °FMild.2 mph46%29.91 "HgN/A
10:00 AM61 °FCool.2 mph62%29.94 "HgN/A
9:00 AM58 °FCool.1 mph69%29.96 "HgN/A
8:00 AM54 °FCool.1 mph85%29.98 "HgN/A
7:00 AM47 °FCool.1 mph92%30.01 "HgN/A
6:00 AM45 °FCool.1 mph94%30.02 "HgN/A
5:00 AM44 °FQuite cool.2 mph96%30.04 "HgN/A
4:00 AM46 °FCool.1 mph94%30.05 "HgN/A
3:00 AM49 °FCool.1 mph89%30.06 "HgN/A
2:00 AM48 °FCool.1 mph90%30.07 "HgN/A
1:00 AM51 °FCool.2 mph85%30.07 "HgN/A
10:00 PM
Thu, May 28
54 °FCool.5 mph77%30.03 "HgN/A
9:00 PM58 °FCool.3 mph76%30.01 "HgN/A
8:00 PM64 °FMild.2 mph65%29.97 "HgN/A
7:00 PM70 °FMild.2 mph41%29.95 "HgN/A
6:00 PM71 °FMild.2 mph39%29.95 "HgN/A
5:00 PM71 °FMild.3 mph41%29.96 "HgN/A
4:00 PM70 °FMild.3 mph44%29.98 "HgN/A
3:00 PM68 °FMild.3 mph44%30.01 "HgN/A
2:00 PM67 °FMild.3 mph44%30.02 "HgN/A
Weather by CustomWeather, © 2015

See weather overviewHow to use our weather pages